CFG2012 WIII-AYPY

Flight info

Callsign CFG2012
Flight time 5h 36m
Altitude 37000
Route CA T5 BIMAK W52 MKS A215 LEBON/N0476F390 A215 ASIXA H777 EPKED H778 SAKTO SAKTO1
Aircraft A333/H-SDE3GHIJ2J3J5M1RVWXY/LB2D1

Departure

Time 2026-04-26 16:00
Airport Soekarno-Hatta International Airport (WIII)

Arrival

Time 2026-04-26 21:36
Airport Port Moresby Jacksons International Airport (AYPY)
Time Latitude Longitude Altitude Speed Heading
2026-04-26 15:41 -6.11646 106.66754 36 ft 0 kts 158°
2026-04-26 15:51 -6.11624 106.66745 35 ft 2 kts 158°
2026-04-26 15:51 -6.11603 106.66736 36 ft 4 kts 147°
2026-04-26 15:51 -6.11582 106.66719 33 ft 4 kts 128°
2026-04-26 15:51 -6.11570 106.66700 35 ft 1 kts 115°
2026-04-26 15:52 -6.11570 106.66699 35 ft 0 kts 115°
2026-04-26 15:54 -6.11562 106.66730 36 ft 8 kts 57°
2026-04-26 15:54 -6.11526 106.66773 36 ft 8 kts 59°
2026-04-26 15:54 -6.11502 106.66824 36 ft 8 kts 66°
2026-04-26 15:54 -6.11480 106.66877 36 ft 8 kts 68°
2026-04-26 15:55 -6.11453 106.66927 36 ft 8 kts 45°
2026-04-26 15:55 -6.11400 106.66938 36 ft 8 kts 346°
2026-04-26 15:55 -6.11345 106.66919 36 ft 9 kts 337°
2026-04-26 15:55 -6.11286 106.66894 36 ft 10 kts 337°
2026-04-26 15:56 -6.11220 106.66867 35 ft 11 kts 338°
2026-04-26 15:56 -6.11140 106.66836 34 ft 13 kts 338°
2026-04-26 15:56 -6.11045 106.66798 31 ft 16 kts 338°
2026-04-26 15:56 -6.10990 106.66754 30 ft 15 kts 299°
2026-04-26 15:57 -6.10986 106.66678 32 ft 0 kts 250°
2026-04-26 15:58 -6.11018 106.66591 33 ft 39 kts 249°
2026-04-26 15:59 -6.11196 106.66159 34 ft 93 kts 248°
2026-04-26 15:59 -6.11499 106.65395 35 ft 140 kts 248°
2026-04-26 15:59 -6.11911 106.64361 85 ft 176 kts 248°
2026-04-26 15:59 -6.12347 106.63165 493 ft 188 kts 249°
2026-04-26 16:00 -6.12811 106.61924 1041 ft 194 kts 251°
2026-04-26 16:00 -6.13056 106.60606 1694 ft 192 kts 275°
2026-04-26 16:00 -6.12488 106.59466 2206 ft 186 kts 305°
2026-04-26 16:00 -6.11773 106.58358 2476 ft 188 kts 290°
2026-04-26 16:01 -6.11311 106.57153 2935 ft 183 kts 289°
2026-04-26 16:01 -6.10872 106.55927 3128 ft 197 kts 292°
2026-04-26 16:01 -6.10338 106.54532 3417 ft 218 kts 295°
2026-04-26 16:01 -6.09745 106.53098 3671 ft 231 kts 291°
2026-04-26 16:02 -6.09152 106.51529 3879 ft 250 kts 291°
2026-04-26 16:02 -6.08409 106.49903 4105 ft 260 kts 308°
2026-04-26 16:02 -6.06939 106.48820 4434 ft 270 kts 344°
2026-04-26 16:02 -6.05709 106.48675 4802 ft 269 kts
2026-04-26 16:03 -6.03415 106.49633 5566 ft 271 kts 32°
2026-04-26 16:03 -6.01923 106.50763 6147 ft 273 kts 45°
2026-04-26 16:03 -6.00818 106.52311 6696 ft 275 kts 65°
2026-04-26 16:03 -6.00313 106.54167 7234 ft 277 kts 81°
2026-04-26 16:04 -6.00065 106.56102 7795 ft 280 kts 83°
2026-04-26 16:04 -5.99847 106.58050 8377 ft 280 kts 83°
2026-04-26 16:04 -5.99610 106.60005 8878 ft 284 kts 83°
2026-04-26 16:04 -5.99352 106.61987 9458 ft 286 kts 83°
2026-04-26 16:05 -5.99082 106.63979 10023 ft 288 kts 82°
2026-04-26 16:05 -5.98806 106.65990 10342 ft 300 kts 82°
2026-04-26 16:05 -5.98513 106.68112 10571 ft 313 kts 82°
2026-04-26 16:05 -5.98206 106.70335 10798 ft 327 kts 82°
2026-04-26 16:06 -5.97884 106.72634 11006 ft 339 kts 82°
2026-04-26 16:06 -5.97548 106.75032 11210 ft 352 kts 82°
2026-04-26 16:06 -5.97208 106.77466 11412 ft 362 kts 82°
2026-04-26 16:06 -5.96848 106.80013 11597 ft 372 kts 83°
2026-04-26 16:07 -5.96655 106.82627 11846 ft 378 kts 92°
2026-04-26 16:07 -5.97063 106.85237 12193 ft 382 kts 107°
2026-04-26 16:07 -5.97996 106.87746 12626 ft 384 kts 112°
2026-04-26 16:07 -5.99048 106.90214 12997 ft 385 kts 113°
2026-04-26 16:08 -6.00122 106.92690 13362 ft 388 kts 113°
2026-04-26 16:08 -6.01198 106.95186 13738 ft 390 kts 113°
2026-04-26 16:08 -6.02272 106.97694 14060 ft 392 kts 113°
2026-04-26 16:08 -6.03338 107.00192 14366 ft 393 kts 113°
2026-04-26 16:09 -6.04421 107.02732 14692 ft 396 kts 113°
2026-04-26 16:09 -6.05510 107.05280 15014 ft 396 kts 113°
2026-04-26 16:09 -6.06596 107.07835 15296 ft 399 kts 113°
2026-04-26 16:09 -6.07680 107.10404 15612 ft 400 kts 113°
2026-04-26 16:10 -6.08775 107.12984 15934 ft 402 kts 113°
2026-04-26 16:10 -6.09877 107.15572 16252 ft 403 kts 113°
2026-04-26 16:10 -6.10967 107.18135 16535 ft 407 kts 113°
2026-04-26 16:10 -6.12082 107.20763 16882 ft 407 kts 113°
2026-04-26 16:11 -6.13196 107.23391 17208 ft 409 kts 113°
2026-04-26 16:11 -6.14315 107.26024 17493 ft 410 kts 113°
2026-04-26 16:11 -6.15431 107.28666 17753 ft 411 kts 112°
2026-04-26 16:11 -6.16555 107.31332 17981 ft 415 kts 113°
2026-04-26 16:12 -6.17688 107.34000 18255 ft 415 kts 113°
2026-04-26 16:12 -6.18813 107.36651 18424 ft 418 kts 113°
2026-04-26 16:12 -6.21103 107.42056 18858 ft 422 kts 112°
2026-04-26 16:13 -6.22253 107.44777 19069 ft 423 kts 112°
2026-04-26 16:13 -6.23404 107.47502 19271 ft 424 kts 112°
2026-04-26 16:13 -6.24562 107.50242 19471 ft 426 kts 112°
2026-04-26 16:13 -6.25724 107.52993 19685 ft 428 kts 112°
2026-04-26 16:14 -6.26892 107.55745 19908 ft 428 kts 112°
2026-04-26 16:14 -6.28059 107.58502 20082 ft 429 kts 112°
2026-04-26 16:14 -6.30378 107.64017 20388 ft 432 kts 112°
2026-04-26 16:15 -6.31554 107.66802 20520 ft 435 kts 112°
2026-04-26 16:15 -6.32738 107.69605 20718 ft 435 kts 112°
2026-04-26 16:15 -6.33928 107.72419 20907 ft 436 kts 112°
2026-04-26 16:16 -6.36305 107.78046 21284 ft 438 kts 112°
2026-04-26 16:16 -6.37494 107.80868 21445 ft 438 kts 112°
2026-04-26 16:16 -6.38686 107.83692 21580 ft 441 kts 112°
2026-04-26 16:16 -6.39888 107.86541 21754 ft 442 kts 112°
2026-04-26 16:17 -6.41091 107.89391 21931 ft 443 kts 112°
2026-04-26 16:17 -6.42296 107.92248 22105 ft 444 kts 112°
2026-04-26 16:17 -6.43501 107.95110 22248 ft 445 kts 112°
2026-04-26 16:17 -6.44700 107.97956 22374 ft 447 kts 112°
2026-04-26 16:18 -6.45918 108.00836 22534 ft 448 kts 112°
2026-04-26 16:18 -6.48407 108.06594 22837 ft 450 kts 113°
2026-04-26 16:19 -6.50930 108.12402 23175 ft 453 kts 113°
2026-04-26 16:19 -6.52190 108.15300 23372 ft 452 kts 113°
2026-04-26 16:19 -6.54286 108.20135 23589 ft 455 kts 113°
2026-04-26 16:20 -6.55960 108.23997 23729 ft 455 kts 113°
2026-04-26 16:20 -6.58498 108.29855 23975 ft 458 kts 113°
2026-04-26 16:20 -6.59766 108.32783 24115 ft 458 kts 113°
2026-04-26 16:21 -6.61040 108.35731 24243 ft 459 kts 113°
2026-04-26 16:21 -6.62319 108.38679 24366 ft 459 kts 113°
2026-04-26 16:21 -6.63600 108.41637 24479 ft 462 kts 113°
2026-04-26 16:21 -6.64882 108.44600 24676 ft 462 kts 112°
2026-04-26 16:22 -6.66148 108.47527 24836 ft 462 kts 112°
2026-04-26 16:22 -6.67423 108.50495 24975 ft 463 kts 111°
2026-04-26 16:22 -6.68485 108.53558 25099 ft 463 kts 104°
2026-04-26 16:22 -6.69096 108.56740 25219 ft 464 kts 96°
2026-04-26 16:23 -6.69200 108.59980 25348 ft 464 kts 87°
2026-04-26 16:23 -6.68940 108.63218 25483 ft 465 kts 84°
2026-04-26 16:23 -6.68557 108.66450 25615 ft 466 kts 82°
2026-04-26 16:23 -6.68115 108.69680 25704 ft 466 kts 82°
2026-04-26 16:24 -6.67647 108.72908 25761 ft 466 kts 82°
2026-04-26 16:24 -6.67185 108.76144 25848 ft 468 kts 82°
2026-04-26 16:24 -6.66736 108.79392 25987 ft 469 kts 82°
2026-04-26 16:24 -6.66298 108.82646 26112 ft 470 kts 82°
2026-04-26 16:25 -6.65873 108.85867 26250 ft 470 kts 82°
2026-04-26 16:25 -6.65443 108.89131 26346 ft 471 kts 82°
2026-04-26 16:25 -6.65013 108.92410 26476 ft 472 kts 82°
2026-04-26 16:25 -6.64581 108.95689 26611 ft 473 kts 82°
2026-04-26 16:26 -6.64151 108.98973 26741 ft 474 kts 82°
2026-04-26 16:26 -6.63866 109.01153 26824 ft 474 kts 82°
2026-04-26 16:26 -6.63295 109.05545 26876 ft 476 kts 82°
2026-04-26 16:26 -6.62860 109.08854 26985 ft 477 kts 82°
2026-04-26 16:27 -6.62423 109.12165 27163 ft 477 kts 82°
2026-04-26 16:27 -6.61988 109.15479 27328 ft 477 kts 82°
2026-04-26 16:27 -6.61551 109.18788 27453 ft 478 kts 82°
2026-04-26 16:27 -6.61116 109.22063 27552 ft 478 kts 82°
2026-04-26 16:28 -6.60674 109.25395 27665 ft 480 kts 82°
2026-04-26 16:28 -6.60231 109.28742 27828 ft 481 kts 83°
2026-04-26 16:28 -6.59789 109.32092 28000 ft 482 kts 82°
2026-04-26 16:28 -6.59351 109.35386 28086 ft 481 kts 82°
2026-04-26 16:29 -6.58459 109.42100 28252 ft 484 kts 82°
2026-04-26 16:29 -6.58013 109.45467 28372 ft 485 kts 82°
2026-04-26 16:29 -6.57567 109.48828 28527 ft 485 kts 82°
2026-04-26 16:30 -6.57121 109.52187 28654 ft 485 kts 82°
2026-04-26 16:30 -6.56678 109.55516 28821 ft 485 kts 82°
2026-04-26 16:30 -6.56229 109.58879 29051 ft 485 kts 82°
2026-04-26 16:30 -6.55783 109.62242 29318 ft 483 kts 82°
2026-04-26 16:31 -6.55338 109.65595 29504 ft 482 kts 82°
2026-04-26 16:31 -6.54895 109.68950 29661 ft 484 kts 82°
2026-04-26 16:31 -6.54448 109.72306 29905 ft 482 kts 82°
2026-04-26 16:31 -6.54002 109.75602 30067 ft 481 kts 82°
2026-04-26 16:32 -6.53553 109.78945 30194 ft 481 kts 82°
2026-04-26 16:32 -6.53253 109.81202 30278 ft 480 kts 82°
2026-04-26 16:32 -6.52216 109.88980 30480 ft 482 kts 82°
2026-04-26 16:33 -6.51774 109.92279 30672 ft 481 kts 82°
2026-04-26 16:33 -6.51334 109.95611 30845 ft 480 kts 83°
2026-04-26 16:33 -6.50897 109.98933 30978 ft 478 kts 82°
2026-04-26 16:33 -6.50451 110.02256 30972 ft 480 kts 82°
2026-04-26 16:34 -6.49562 110.08920 31247 ft 480 kts 82°
2026-04-26 16:34 -6.49114 110.12253 31427 ft 480 kts 82°
2026-04-26 16:34 -6.48671 110.15584 31648 ft 475 kts 82°
2026-04-26 16:35 -6.48165 110.18919 32117 ft 486 kts 82°
2026-04-26 16:35 -6.47707 110.22263 32952 ft 474 kts 81°
2026-04-26 16:35 -6.47282 110.25541 33506 ft 475 kts 84°
2026-04-26 16:35 -6.46883 110.28802 34108 ft 467 kts 83°
2026-04-26 16:36 -6.46549 110.31999 34225 ft 460 kts 84°
2026-04-26 16:36 -6.46157 110.35219 34390 ft 459 kts 84°
2026-04-26 16:36 -6.45358 110.41665 34592 ft 459 kts 86°
2026-04-26 16:37 -6.44383 110.47938 34474 ft 453 kts 82°
2026-04-26 16:37 -6.43667 110.53167 34472 ft 451 kts 82°
2026-04-26 16:38 -6.42861 110.60493 34492 ft 449 kts 84°
2026-04-26 16:38 -6.42437 110.63513 34379 ft 424 kts 80°
2026-04-26 16:38 -6.41958 110.66489 34301 ft 433 kts 81°
2026-04-26 16:39 -6.41026 110.72523 34355 ft 448 kts 84°
2026-04-26 16:39 -6.40633 110.75633 34489 ft 448 kts 83°
2026-04-26 16:39 -6.40238 110.78741 34566 ft 449 kts 83°
2026-04-26 16:40 -6.39407 110.85032 34792 ft 452 kts 84°
2026-04-26 16:40 -6.38620 110.91287 34858 ft 453 kts 83°
2026-04-26 16:41 -6.37781 110.97573 34988 ft 459 kts 82°
2026-04-26 16:41 -6.36954 111.03910 35076 ft 449 kts 84°
2026-04-26 16:42 -6.36263 111.09075 35059 ft 433 kts 83°
2026-04-26 16:42 -6.35843 111.12088 34914 ft 439 kts 81°
2026-04-26 16:42 -6.35405 111.15116 34869 ft 438 kts 83°
2026-04-26 16:43 -6.34619 111.21202 34947 ft 443 kts 83°
2026-04-26 16:43 -6.33811 111.27407 35102 ft 448 kts 83°
2026-04-26 16:44 -6.32976 111.33670 35248 ft 453 kts 83°
2026-04-26 16:44 -6.32554 111.36828 35356 ft 457 kts 83°
2026-04-26 16:44 -6.32132 111.39996 35440 ft 458 kts 83°
2026-04-26 16:45 -6.31294 111.46320 35565 ft 460 kts 83°
2026-04-26 16:45 -6.30443 111.52727 35678 ft 465 kts 83°
2026-04-26 16:46 -6.29587 111.59189 35797 ft 467 kts 83°
2026-04-26 16:46 -6.29154 111.62432 35900 ft 467 kts 83°
2026-04-26 16:46 -6.28719 111.65675 36020 ft 468 kts 83°
2026-04-26 16:47 -6.28285 111.68931 36187 ft 467 kts 83°
2026-04-26 16:47 -6.27862 111.72117 36336 ft 466 kts 83°
2026-04-26 16:47 -6.27429 111.75348 36453 ft 466 kts 83°
2026-04-26 16:47 -6.26999 111.78577 36589 ft 465 kts 83°
2026-04-26 16:48 -6.26566 111.81814 36730 ft 466 kts 82°
2026-04-26 16:48 -6.26116 111.85053 36858 ft 469 kts 82°
2026-04-26 16:48 -6.25207 111.91538 36879 ft 467 kts 83°
2026-04-26 16:49 -6.24331 111.97976 36881 ft 466 kts 83°
2026-04-26 16:49 -6.23485 112.04433 36888 ft 467 kts 85°
2026-04-26 16:50 -6.22602 112.10848 36864 ft 463 kts 81°
2026-04-26 16:50 -6.21670 112.17349 36897 ft 474 kts 83°
2026-04-26 16:51 -6.20787 112.23878 36864 ft 473 kts 81°
2026-04-26 16:51 -6.19934 112.30404 36882 ft 470 kts 81°
2026-04-26 16:52 -6.19096 112.35812 36889 ft 468 kts 82°
2026-04-26 16:52 -6.18525 112.40025 36852 ft 450 kts 83°
2026-04-26 16:52 -6.18082 112.43186 36875 ft 457 kts 84°
2026-04-26 16:53 -6.17261 112.49483 36886 ft 467 kts 80°
2026-04-26 16:53 -6.16782 112.52660 36855 ft 453 kts 80°
2026-04-26 16:53 -6.16311 112.55748 36845 ft 447 kts 83°
2026-04-26 16:54 -6.15541 112.61983 36891 ft 450 kts 82°
2026-04-26 16:54 -6.14559 112.68332 36877 ft 464 kts 83°
2026-04-26 16:55 -6.13760 112.74800 36867 ft 467 kts 83°
2026-04-26 16:55 -6.12948 112.81266 36869 ft 465 kts 83°
2026-04-26 16:56 -6.11640 112.90917 36868 ft 466 kts 82°
2026-04-26 16:57 -6.10742 112.97381 36867 ft 468 kts 82°
2026-04-26 16:57 -6.09400 113.06993 36856 ft 454 kts 84°
2026-04-26 16:58 -6.09023 113.10179 36876 ft 467 kts 84°
2026-04-26 16:58 -6.08724 113.12312 36859 ft 466 kts 82°
2026-04-26 16:58 -6.07643 113.19946 36881 ft 478 kts 80°
2026-04-26 16:59 -6.07130 113.23172 36850 ft 461 kts 82°
2026-04-26 17:00 -6.05356 113.35955 36862 ft 464 kts 83°
2026-04-26 17:00 -6.04038 113.45646 36870 ft 467 kts 83°
2026-04-26 17:01 -6.03156 113.52065 36860 ft 467 kts 83°
2026-04-26 17:01 -6.02260 113.58516 36859 ft 465 kts 83°
2026-04-26 17:02 -6.01355 113.65003 36859 ft 469 kts 82°
2026-04-26 17:02 -6.00446 113.71482 36858 ft 467 kts 82°
2026-04-26 17:03 -5.99503 113.77874 36854 ft 466 kts 82°
2026-04-26 17:03 -5.98603 113.84333 36856 ft 467 kts 83°
2026-04-26 17:04 -5.97736 113.90790 36856 ft 468 kts 83°
2026-04-26 17:04 -5.96844 113.97266 36855 ft 468 kts 83°
2026-04-26 17:05 -5.95940 114.03733 36856 ft 468 kts 83°
2026-04-26 17:05 -5.95025 114.10189 36855 ft 467 kts 83°
2026-04-26 17:06 -5.94099 114.16638 36845 ft 463 kts 82°
2026-04-26 17:06 -5.93210 114.23019 36859 ft 466 kts 83°
2026-04-26 17:07 -5.92319 114.29510 36855 ft 468 kts 83°
2026-04-26 17:07 -5.91406 114.35980 36853 ft 467 kts 83°
2026-04-26 17:08 -5.90463 114.42479 36862 ft 472 kts 82°
2026-04-26 17:08 -5.89489 114.48943 36843 ft 464 kts 82°
2026-04-26 17:09 -5.89025 114.52162 36864 ft 477 kts 82°
2026-04-26 17:09 -5.88694 114.54353 36855 ft 479 kts 83°
2026-04-26 17:09 -5.88081 114.58717 36850 ft 467 kts 83°
2026-04-26 17:09 -5.87656 114.61942 36861 ft 467 kts 81°
2026-04-26 17:10 -5.86805 114.68398 36807 ft 465 kts 83°
2026-04-26 17:10 -5.85959 114.74884 36852 ft 470 kts 83°
2026-04-26 17:11 -5.85007 114.81338 36853 ft 468 kts 83°
2026-04-26 17:11 -5.84084 114.87820 36856 ft 471 kts 85°
2026-04-26 17:12 -5.82706 114.97604 36866 ft 476 kts 82°
2026-04-26 17:13 -5.81374 115.07365 36864 ft 467 kts 83°
2026-04-26 17:14 -5.79948 115.16938 36856 ft 463 kts 82°
2026-04-26 17:14 -5.78562 115.26635 36854 ft 469 kts 83°
2026-04-26 17:15 -5.77167 115.36357 36852 ft 471 kts 82°
2026-04-26 17:16 -5.76221 115.42851 36854 ft 469 kts 83°
2026-04-26 17:16 -5.75315 115.49334 36850 ft 470 kts 83°
2026-04-26 17:17 -5.74404 115.55794 36849 ft 469 kts 83°
2026-04-26 17:17 -5.73477 115.62279 36845 ft 468 kts 82°
2026-04-26 17:18 -5.72552 115.68753 36847 ft 469 kts 82°
2026-04-26 17:18 -5.71615 115.75280 36846 ft 474 kts 83°
2026-04-26 17:19 -5.70217 115.85053 36849 ft 469 kts 82°
2026-04-26 17:19 -5.69287 115.91503 36848 ft 471 kts 82°
2026-04-26 17:20 -5.68662 115.95859 36851 ft 465 kts 83°
2026-04-26 17:20 -5.67456 116.04460 36848 ft 471 kts 82°
2026-04-26 17:21 -5.66511 116.10953 36846 ft 471 kts 82°
2026-04-26 17:21 -5.65544 116.17465 36848 ft 471 kts 82°
2026-04-26 17:22 -5.64609 116.23980 36848 ft 471 kts 82°
2026-04-26 17:22 -5.63675 116.30487 36850 ft 471 kts 83°
2026-04-26 17:23 -5.62740 116.36968 36848 ft 472 kts 82°
2026-04-26 17:23 -5.61790 116.43504 36848 ft 472 kts 82°
2026-04-26 17:24 -5.60855 116.50045 36850 ft 473 kts 83°
2026-04-26 17:24 -5.59923 116.56540 36846 ft 472 kts 83°
2026-04-26 17:25 -5.58968 116.63063 36843 ft 472 kts 82°
2026-04-26 17:25 -5.58022 116.69596 36841 ft 472 kts 82°
2026-04-26 17:26 -5.57077 116.76132 36842 ft 473 kts 82°
2026-04-26 17:26 -5.56124 116.82664 36842 ft 473 kts 82°
2026-04-26 17:27 -5.55174 116.89194 36841 ft 473 kts 82°
2026-04-26 17:27 -5.54233 116.95686 36841 ft 474 kts 82°
2026-04-26 17:28 -5.53252 117.02265 36839 ft 463 kts 83°
2026-04-26 17:28 -5.52492 117.07627 36819 ft 466 kts 83°
2026-04-26 17:29 -5.51539 117.13064 36834 ft 469 kts 81°
2026-04-26 17:29 -5.50010 117.20502 36845 ft 472 kts 79°
2026-04-26 17:30 -5.48672 117.26973 36844 ft 474 kts 79°
2026-04-26 17:30 -5.47363 117.33385 36836 ft 466 kts 79°
2026-04-26 17:31 -5.46107 117.39826 36839 ft 472 kts 80°
2026-04-26 17:31 -5.44849 117.46264 36840 ft 473 kts 79°
2026-04-26 17:32 -5.43566 117.52730 36839 ft 469 kts 79°
2026-04-26 17:32 -5.42277 117.59167 36840 ft 471 kts 79°
2026-04-26 17:33 -5.41008 117.65602 36840 ft 469 kts 79°
2026-04-26 17:34 -5.39117 117.75223 36839 ft 469 kts 79°
2026-04-26 17:34 -5.37839 117.81677 36839 ft 471 kts 79°
2026-04-26 17:35 -5.36552 117.88069 36828 ft 463 kts 80°
2026-04-26 17:35 -5.35308 117.94391 36840 ft 467 kts 79°
2026-04-26 17:36 -5.34048 118.00825 36840 ft 472 kts 79°
2026-04-26 17:36 -5.32766 118.07297 36841 ft 472 kts 79°
2026-04-26 17:37 -5.31492 118.13744 36845 ft 469 kts 79°
2026-04-26 17:37 -5.30219 118.20154 36840 ft 468 kts 79°
2026-04-26 17:38 -5.28319 118.29732 36838 ft 468 kts 79°
2026-04-26 17:38 -5.27043 118.36156 36844 ft 468 kts 79°
2026-04-26 17:39 -5.25765 118.42578 36845 ft 468 kts 79°
2026-04-26 17:39 -5.24498 118.48937 36847 ft 469 kts 79°
2026-04-26 17:40 -5.23432 118.54273 36843 ft 468 kts 79°
2026-04-26 17:40 -5.21953 118.61753 36843 ft 467 kts 79°
2026-04-26 17:41 -5.20684 118.68153 36842 ft 468 kts 79°
2026-04-26 17:41 -5.19404 118.74539 36837 ft 465 kts 78°
2026-04-26 17:42 -5.18132 118.80873 36841 ft 466 kts 79°
2026-04-26 17:42 -5.16857 118.87257 36836 ft 467 kts 79°
2026-04-26 17:43 -5.15585 118.93618 36838 ft 466 kts 79°
2026-04-26 17:43 -5.14317 118.99955 36842 ft 463 kts 79°
2026-04-26 17:44 -5.13040 119.06316 36836 ft 468 kts 79°
2026-04-26 17:44 -5.11766 119.12680 36844 ft 470 kts 79°
2026-04-26 17:45 -5.10488 119.19087 36843 ft 467 kts 79°
2026-04-26 17:45 -5.09224 119.25461 36854 ft 466 kts 79°
2026-04-26 17:46 -5.07943 119.31864 36855 ft 471 kts 78°
2026-04-26 17:46 -5.06659 119.38251 36858 ft 468 kts 78°
2026-04-26 17:47 -5.05592 119.43572 36857 ft 468 kts 79°
2026-04-26 17:47 -5.04167 119.51060 36855 ft 467 kts 83°
2026-04-26 17:48 -5.04029 119.57580 36857 ft 468 kts 91°
2026-04-26 17:48 -5.04322 119.64092 36856 ft 467 kts 93°
2026-04-26 17:49 -5.04689 119.70600 36864 ft 467 kts 93°
2026-04-26 17:49 -5.05045 119.77072 36872 ft 466 kts 93°
2026-04-26 17:50 -5.05387 119.83573 36885 ft 467 kts 93°
2026-04-26 17:50 -5.05721 119.90082 36891 ft 466 kts 92°
2026-04-26 17:51 -5.06053 119.96566 36891 ft 465 kts 93°
2026-04-26 17:51 -5.06386 120.03009 36891 ft 465 kts 93°
2026-04-26 17:52 -5.06725 120.09491 36880 ft 465 kts 93°
2026-04-26 17:52 -5.07042 120.15982 36880 ft 467 kts 92°
2026-04-26 17:53 -5.07322 120.22483 36844 ft 468 kts 91°
2026-04-26 17:54 -5.07852 120.32207 36854 ft 467 kts 92°
2026-04-26 17:54 -5.08207 120.38780 36853 ft 471 kts 92°
2026-04-26 17:55 -5.08551 120.45274 36846 ft 463 kts 92°
2026-04-26 17:55 -5.08721 120.48486 36841 ft 475 kts 90°
2026-04-26 17:55 -5.08907 120.51840 36863 ft 478 kts 91°
2026-04-26 17:56 -5.09365 120.58436 36844 ft 466 kts 93°
2026-04-26 17:57 -5.09963 120.71563 36834 ft 470 kts 91°
2026-04-26 17:57 -5.10223 120.78126 36837 ft 472 kts 92°
2026-04-26 17:58 -5.10875 120.91237 36841 ft 472 kts 93°
2026-04-26 17:59 -5.11121 120.97719 36825 ft 460 kts 93°
2026-04-26 17:59 -5.11231 121.00976 36837 ft 471 kts 92°
2026-04-26 17:59 -5.11570 121.07522 36775 ft 468 kts 95°
2026-04-26 18:00 -5.12021 121.14044 36890 ft 471 kts 94°
2026-04-26 18:00 -5.12381 121.20582 36859 ft 470 kts 91°
2026-04-26 18:01 -5.12633 121.27146 36841 ft 481 kts 91°
2026-04-26 18:01 -5.12967 121.33893 36833 ft 483 kts 92°
2026-04-26 18:02 -5.13158 121.38358 36795 ft 471 kts 91°
2026-04-26 18:02 -5.13448 121.43889 36901 ft 471 kts 94°
2026-04-26 18:02 -5.13678 121.47149 36823 ft 478 kts 95°
2026-04-26 18:03 -5.14065 121.53806 36837 ft 473 kts 92°
2026-04-26 18:03 -5.14277 121.60426 36831 ft 476 kts 92°
2026-04-26 18:04 -5.14537 121.67004 36833 ft 470 kts 92°
2026-04-26 18:05 -5.15036 121.76791 36835 ft 468 kts 93°
2026-04-26 18:05 -5.15386 121.83339 36835 ft 471 kts 92°
2026-04-26 18:06 -5.15705 121.89898 36837 ft 468 kts 92°
2026-04-26 18:06 -5.16021 121.96392 36838 ft 470 kts 92°
2026-04-26 18:07 -5.16338 122.02933 36838 ft 469 kts 93°
2026-04-26 18:07 -5.16655 122.09486 36837 ft 470 kts 92°
2026-04-26 18:08 -5.16969 122.16047 36836 ft 471 kts 92°
2026-04-26 18:08 -5.17268 122.22565 36838 ft 470 kts 92°
2026-04-26 18:09 -5.17584 122.29135 36835 ft 471 kts 92°
2026-04-26 18:09 -5.17911 122.35710 36839 ft 471 kts 93°
2026-04-26 18:10 -5.18229 122.42260 36841 ft 466 kts 92°
2026-04-26 18:10 -5.18533 122.48774 36839 ft 468 kts 92°
2026-04-26 18:11 -5.18840 122.55286 36842 ft 469 kts 92°
2026-04-26 18:11 -5.19146 122.61836 36843 ft 469 kts 93°
2026-04-26 18:12 -5.19455 122.68358 36849 ft 467 kts 92°
2026-04-26 18:12 -5.19766 122.74871 36849 ft 466 kts 92°
2026-04-26 18:13 -5.20074 122.81339 36847 ft 467 kts 93°
2026-04-26 18:13 -5.20375 122.87852 36846 ft 468 kts 92°
2026-04-26 18:14 -5.20685 122.94366 36843 ft 466 kts 93°
2026-04-26 18:14 -5.20986 123.00811 36840 ft 465 kts 92°
2026-04-26 18:15 -5.21296 123.07328 36842 ft 467 kts 93°
2026-04-26 18:15 -5.21587 123.13810 36809 ft 460 kts 93°
2026-04-26 18:16 -5.21866 123.20251 36837 ft 465 kts 93°
2026-04-26 18:16 -5.22329 123.30047 36837 ft 471 kts 93°
2026-04-26 18:17 -5.22629 123.36539 36835 ft 467 kts 93°
2026-04-26 18:17 -5.22892 123.41954 36840 ft 467 kts 93°
2026-04-26 18:18 -5.23198 123.48477 36838 ft 467 kts 93°
2026-04-26 18:18 -5.23514 123.55050 36838 ft 471 kts 93°
2026-04-26 18:19 -5.23797 123.61546 36841 ft 466 kts 93°
2026-04-26 18:19 -5.24083 123.68034 36839 ft 466 kts 93°
2026-04-26 18:20 -5.24375 123.74551 36837 ft 462 kts 93°
2026-04-26 18:20 -5.24643 123.79924 36836 ft 466 kts 93°
2026-04-26 18:21 -5.24969 123.87530 36835 ft 469 kts 93°
2026-04-26 18:21 -5.25238 123.94043 36844 ft 473 kts 93°
2026-04-26 18:22 -5.25389 123.97414 36839 ft 486 kts 93°
2026-04-26 18:22 -5.25547 124.00769 36826 ft 476 kts 93°
2026-04-26 18:22 -5.25854 124.07383 36835 ft 475 kts 94°
2026-04-26 18:23 -5.26141 124.13962 36839 ft 470 kts 93°
2026-04-26 18:23 -5.26438 124.20467 36837 ft 469 kts 94°
2026-04-26 18:24 -5.26808 124.26976 36889 ft 467 kts 94°
2026-04-26 18:24 -5.27051 124.33584 36811 ft 475 kts 94°
2026-04-26 18:25 -5.27297 124.39985 36861 ft 451 kts 95°
2026-04-26 18:25 -5.27464 124.43079 36798 ft 438 kts 93°
2026-04-26 18:25 -5.27650 124.46112 36806 ft 426 kts 95°
2026-04-26 18:26 -5.28055 124.52106 36842 ft 436 kts 94°
2026-04-26 18:26 -5.28441 124.58202 36837 ft 439 kts 93°
2026-04-26 18:27 -5.28758 124.64436 36826 ft 465 kts 97°
2026-04-26 18:27 -5.28915 124.67742 36825 ft 478 kts 95°
2026-04-26 18:27 -5.29172 124.71109 36841 ft 483 kts 94°
2026-04-26 18:28 -5.29559 124.77629 36804 ft 461 kts 90°
2026-04-26 18:28 -5.29779 124.84065 36845 ft 467 kts 91°
2026-04-26 18:29 -5.30074 124.90515 36834 ft 465 kts 92°
2026-04-26 18:29 -5.30384 124.97048 36840 ft 472 kts 93°
2026-04-26 18:30 -5.30719 125.03651 36840 ft 476 kts 93°
2026-04-26 18:30 -5.31096 125.10220 36847 ft 475 kts 94°
2026-04-26 18:31 -5.31436 125.16825 36829 ft 470 kts 92°
2026-04-26 18:31 -5.31738 125.23422 36836 ft 474 kts 93°
2026-04-26 18:32 -5.32076 125.29987 36838 ft 468 kts 93°
2026-04-26 18:32 -5.32412 125.36458 36842 ft 468 kts 94°
2026-04-26 18:33 -5.32734 125.42997 36849 ft 473 kts 94°
2026-04-26 18:33 -5.32957 125.49617 36854 ft 479 kts 94°
2026-04-26 18:34 -5.33313 125.56243 36799 ft 472 kts 95°
2026-04-26 18:34 -5.33527 125.59498 36805 ft 458 kts 94°
2026-04-26 18:34 -5.33705 125.62672 36862 ft 458 kts 91°
2026-04-26 18:35 -5.33998 125.69052 36836 ft 457 kts 93°
2026-04-26 18:35 -5.34290 125.75490 36847 ft 466 kts 94°
2026-04-26 18:36 -5.34658 125.82041 36840 ft 471 kts 93°
2026-04-26 18:36 -5.34977 125.88593 36844 ft 477 kts 93°
2026-04-26 18:37 -5.35331 125.95224 36843 ft 474 kts 94°
2026-04-26 18:37 -5.35672 126.01807 36839 ft 469 kts 94°
2026-04-26 18:38 -5.35983 126.08386 36847 ft 478 kts 92°
2026-04-26 18:38 -5.36264 126.15009 36844 ft 474 kts 94°
2026-04-26 18:39 -5.36601 126.21599 36843 ft 473 kts 94°
2026-04-26 18:39 -5.36944 126.28199 36841 ft 473 kts 94°
2026-04-26 18:40 -5.37271 126.34788 36838 ft 470 kts 94°
2026-04-26 18:40 -5.37582 126.41284 36841 ft 465 kts 94°
2026-04-26 18:41 -5.37938 126.47865 36843 ft 476 kts 94°
2026-04-26 18:41 -5.38258 126.54466 36844 ft 472 kts 94°
2026-04-26 18:42 -5.38556 126.61068 36844 ft 474 kts 92°
2026-04-26 18:42 -5.38837 126.67661 36848 ft 475 kts 92°
2026-04-26 18:43 -5.39138 126.74298 36840 ft 479 kts 94°
2026-04-26 18:43 -5.39475 126.80910 36835 ft 472 kts 94°
2026-04-26 18:44 -5.39753 126.87382 36851 ft 460 kts 92°
2026-04-26 18:44 -5.40072 126.93791 36878 ft 457 kts 94°
2026-04-26 18:45 -5.40426 127.00245 36845 ft 464 kts 96°
2026-04-26 18:45 -5.40646 127.03511 36846 ft 475 kts 94°
2026-04-26 18:45 -5.40849 127.06806 36839 ft 474 kts 94°
2026-04-26 18:46 -5.41141 127.13366 36845 ft 471 kts 92°
2026-04-26 18:46 -5.41409 127.19941 36845 ft 472 kts 93°
2026-04-26 18:47 -5.41696 127.26570 36839 ft 477 kts 93°
2026-04-26 18:47 -5.41848 127.29883 36839 ft 466 kts 92°
2026-04-26 18:47 -5.42051 127.33163 36840 ft 474 kts 94°
2026-04-26 18:48 -5.42390 127.39733 36842 ft 473 kts 91°
2026-04-26 18:48 -5.42558 127.46338 36844 ft 475 kts 93°
2026-04-26 18:49 -5.42879 127.53009 36843 ft 478 kts 93°
2026-04-26 18:49 -5.43217 127.59620 36839 ft 474 kts 93°
2026-04-26 18:50 -5.43543 127.66229 36841 ft 474 kts 93°
2026-04-26 18:50 -5.43858 127.72846 36840 ft 474 kts 93°
2026-04-26 18:51 -5.44158 127.79458 36836 ft 473 kts 93°
2026-04-26 18:51 -5.44468 127.86012 36843 ft 473 kts 93°
2026-04-26 18:52 -5.44777 127.92625 36841 ft 475 kts 93°
2026-04-26 18:52 -5.45078 127.99248 36839 ft 473 kts 93°
2026-04-26 18:53 -5.45383 128.05835 36842 ft 473 kts 93°
2026-04-26 18:53 -5.45683 128.12403 36842 ft 469 kts 93°
2026-04-26 18:54 -5.45983 128.18959 36843 ft 471 kts 93°
2026-04-26 18:54 -5.46284 128.25493 36843 ft 472 kts 93°
2026-04-26 18:55 -5.46580 128.32080 36845 ft 474 kts 92°
2026-04-26 18:55 -5.46875 128.38669 36840 ft 472 kts 93°
2026-04-26 18:56 -5.47174 128.45218 36839 ft 471 kts 93°
2026-04-26 18:56 -5.47479 128.51809 36839 ft 472 kts 93°
2026-04-26 18:57 -5.47679 128.56211 36840 ft 472 kts 93°
2026-04-26 18:57 -5.48065 128.64976 36841 ft 472 kts 93°
2026-04-26 18:58 -5.48363 128.71527 36843 ft 472 kts 93°
2026-04-26 18:58 -5.48658 128.78128 36840 ft 473 kts 93°
2026-04-26 18:59 -5.48958 128.84721 36841 ft 471 kts 93°
2026-04-26 18:59 -5.49247 128.91262 36845 ft 473 kts 93°
2026-04-26 19:00 -5.49546 128.97864 36842 ft 472 kts 93°
2026-04-26 19:00 -5.49839 129.04438 36842 ft 471 kts 93°
2026-04-26 19:01 -5.50131 129.11019 36838 ft 471 kts 93°
2026-04-26 19:01 -5.50431 129.17560 36840 ft 471 kts 93°
2026-04-26 19:02 -5.50714 129.24141 36836 ft 473 kts 93°
2026-04-26 19:02 -5.50896 129.28546 36841 ft 472 kts 93°
2026-04-26 19:03 -5.51281 129.37311 36838 ft 471 kts 93°
2026-04-26 19:03 -5.51571 129.43856 36839 ft 472 kts 93°
2026-04-26 19:04 -5.51859 129.50457 36840 ft 471 kts 93°
2026-04-26 19:04 -5.52147 129.57031 36847 ft 470 kts 93°
2026-04-26 19:05 -5.52574 129.66837 36839 ft 471 kts 92°
2026-04-26 19:06 -5.52849 129.73416 36842 ft 471 kts 92°
2026-04-26 19:06 -5.53134 129.79981 36839 ft 471 kts 92°
2026-04-26 19:07 -5.53375 129.85480 36845 ft 470 kts 92°
2026-04-26 19:07 -5.53662 129.91996 36844 ft 470 kts 92°
2026-04-26 19:08 -5.53942 129.98566 36845 ft 471 kts 92°
2026-04-26 19:08 -5.54222 130.05134 36846 ft 470 kts 92°
2026-04-26 19:09 -5.54500 130.11693 36845 ft 469 kts 92°
2026-04-26 19:09 -5.54786 130.18224 36846 ft 471 kts 92°
2026-04-26 19:10 -5.55059 130.24796 36848 ft 471 kts 92°
2026-04-26 19:10 -5.55340 130.31371 36846 ft 470 kts 92°
2026-04-26 19:11 -5.55613 130.37912 36845 ft 470 kts 92°
2026-04-26 19:11 -5.55882 130.44469 36843 ft 471 kts 92°
2026-04-26 19:12 -5.56158 130.50994 36845 ft 470 kts 92°
2026-04-26 19:12 -5.56433 130.57562 36845 ft 470 kts 92°
2026-04-26 19:13 -5.56702 130.64120 36848 ft 470 kts 91°
2026-04-26 19:13 -5.56974 130.70649 36847 ft 473 kts 92°
2026-04-26 19:14 -5.57249 130.77249 36844 ft 470 kts 92°
2026-04-26 19:14 -5.57495 130.83828 36840 ft 468 kts 91°
2026-04-26 19:15 -5.57777 130.90408 36847 ft 470 kts 92°
2026-04-26 19:15 -5.58055 130.96932 36849 ft 470 kts 92°
2026-04-26 19:16 -5.58327 131.03487 36850 ft 469 kts 92°
2026-04-26 19:16 -5.58670 131.09973 36834 ft 462 kts 96°
2026-04-26 19:17 -5.59021 131.16458 36851 ft 470 kts 91°
2026-04-26 19:17 -5.59112 131.19757 36851 ft 483 kts 90°
2026-04-26 19:17 -5.59203 131.23139 36848 ft 481 kts 91°
2026-04-26 19:18 -5.59411 131.29764 36846 ft 471 kts 91°
2026-04-26 19:18 -5.59671 131.36313 36848 ft 470 kts 92°
2026-04-26 19:19 -5.59942 131.42855 36847 ft 472 kts 91°
2026-04-26 19:19 -5.60199 131.49454 36847 ft 472 kts 92°
2026-04-26 19:20 -5.60467 131.56040 36867 ft 472 kts 92°
2026-04-26 19:20 -5.60736 131.62684 36847 ft 474 kts 91°
2026-04-26 19:21 -5.60984 131.69239 36848 ft 471 kts 91°
2026-04-26 19:21 -5.61249 131.75822 36846 ft 471 kts 91°
2026-04-26 19:22 -5.61505 131.82377 36849 ft 472 kts 91°
2026-04-26 19:22 -5.61764 131.88954 36849 ft 472 kts 91°
2026-04-26 19:23 -5.62031 131.95543 36849 ft 474 kts 91°
2026-04-26 19:23 -5.62294 132.02154 36851 ft 472 kts 91°
2026-04-26 19:24 -5.62554 132.08719 36849 ft 472 kts 91°
2026-04-26 19:24 -5.62963 132.18583 36851 ft 472 kts 91°
2026-04-26 19:25 -5.63147 132.24113 36862 ft 478 kts 91°
2026-04-26 19:25 -5.63431 132.31836 36857 ft 467 kts 90°
2026-04-26 19:26 -5.63666 132.38391 36861 ft 484 kts 91°
2026-04-26 19:26 -5.63937 132.45092 36845 ft 478 kts 91°
2026-04-26 19:27 -5.64167 132.51771 36851 ft 481 kts 90°
2026-04-26 19:27 -5.64281 132.55005 36853 ft 465 kts 87°
2026-04-26 19:27 -5.64387 132.58268 36846 ft 462 kts 88°
2026-04-26 19:28 -5.64670 132.64801 36850 ft 473 kts 90°
2026-04-26 19:28 -5.65190 132.71283 36860 ft 466 kts 98°
2026-04-26 19:29 -5.67064 132.77564 36858 ft 471 kts 109°
2026-04-26 19:29 -5.69453 132.83761 36865 ft 477 kts 110°
2026-04-26 19:30 -5.71855 132.89846 36860 ft 475 kts 109°
2026-04-26 19:30 -5.73002 132.92908 36862 ft 461 kts 111°
2026-04-26 19:30 -5.73777 132.94955 36854 ft 468 kts 109°
2026-04-26 19:31 -5.76432 133.02114 36870 ft 472 kts 110°
2026-04-26 19:31 -5.78862 133.08210 36843 ft 472 kts 108°
2026-04-26 19:32 -5.81213 133.14423 36855 ft 475 kts 109°
2026-04-26 19:32 -5.83588 133.20597 36863 ft 473 kts 109°
2026-04-26 19:33 -5.85961 133.26775 36864 ft 475 kts 109°
2026-04-26 19:33 -5.88326 133.32964 36860 ft 474 kts 109°
2026-04-26 19:34 -5.90668 133.39116 37003 ft 475 kts 109°
2026-04-26 19:34 -5.91849 133.42216 37124 ft 475 kts 109°
2026-04-26 19:34 -5.93032 133.45317 37243 ft 475 kts 109°
2026-04-26 19:35 -5.95398 133.51519 37422 ft 476 kts 109°
2026-04-26 19:35 -5.96585 133.54630 37571 ft 476 kts 109°
2026-04-26 19:35 -5.97774 133.57730 37733 ft 475 kts 109°
2026-04-26 19:36 -5.98956 133.60826 37883 ft 475 kts 109°
2026-04-26 19:36 -5.99735 133.62872 37969 ft 475 kts 109°
2026-04-26 19:36 -6.01309 133.67013 38246 ft 472 kts 109°
2026-04-26 19:36 -6.02464 133.70055 38398 ft 472 kts 109°
2026-04-26 19:37 -6.03639 133.73148 38538 ft 471 kts 109°
2026-04-26 19:37 -6.04812 133.76231 38656 ft 471 kts 109°
2026-04-26 19:37 -6.07148 133.82365 38831 ft 472 kts 109°
2026-04-26 19:38 -6.09488 133.88514 38864 ft 469 kts 109°
2026-04-26 19:38 -6.11804 133.94600 38865 ft 468 kts 109°
2026-04-26 19:39 -6.14132 134.00722 38863 ft 468 kts 109°
2026-04-26 19:39 -6.16458 134.06843 38864 ft 468 kts 109°
2026-04-26 19:40 -6.18784 134.12965 38868 ft 468 kts 109°
2026-04-26 19:40 -6.21093 134.19044 38867 ft 468 kts 109°
2026-04-26 19:41 -6.23414 134.25160 38866 ft 468 kts 109°
2026-04-26 19:41 -6.25347 134.30253 38867 ft 468 kts 109°
2026-04-26 19:42 -6.28050 134.37380 38867 ft 469 kts 110°
2026-04-26 19:42 -6.30383 134.43532 38867 ft 470 kts 110°
2026-04-26 19:43 -6.32712 134.49677 38870 ft 470 kts 110°
2026-04-26 19:43 -6.35026 134.55785 38870 ft 470 kts 110°
2026-04-26 19:44 -6.37353 134.61928 38869 ft 470 kts 109°
2026-04-26 19:44 -6.39677 134.68067 38870 ft 469 kts 109°
2026-04-26 19:45 -6.41984 134.74165 38872 ft 469 kts 109°
2026-04-26 19:45 -6.44304 134.80299 38873 ft 469 kts 109°
2026-04-26 19:46 -6.46623 134.86432 38872 ft 469 kts 109°
2026-04-26 19:46 -6.48940 134.92560 38873 ft 469 kts 110°
2026-04-26 19:47 -6.50475 134.96621 38870 ft 468 kts 110°
2026-04-26 19:47 -6.53571 135.04819 38871 ft 468 kts 108°
2026-04-26 19:48 -6.55868 135.10906 38879 ft 468 kts 110°
2026-04-26 19:48 -6.58180 135.17037 38872 ft 468 kts 109°
2026-04-26 19:49 -6.60496 135.23175 38881 ft 468 kts 109°
2026-04-26 19:49 -6.62792 135.29264 38869 ft 468 kts 110°
2026-04-26 19:50 -6.65106 135.35401 38872 ft 468 kts 108°
2026-04-26 19:50 -6.67415 135.41532 38871 ft 468 kts 110°
2026-04-26 19:51 -6.69723 135.47663 38872 ft 469 kts 109°
2026-04-26 19:51 -6.72021 135.53770 38871 ft 469 kts 109°
2026-04-26 19:52 -6.74336 135.59923 38872 ft 469 kts 110°
2026-04-26 19:52 -6.76645 135.66061 38873 ft 469 kts 109°
2026-04-26 19:53 -6.78955 135.72206 38874 ft 469 kts 110°
2026-04-26 19:53 -6.81255 135.78327 38873 ft 469 kts 110°
2026-04-26 19:54 -6.83171 135.83431 38874 ft 469 kts 110°
2026-04-26 19:54 -6.85853 135.90574 38876 ft 469 kts 110°
2026-04-26 19:55 -6.87772 135.95688 38875 ft 469 kts 110°
2026-04-26 19:55 -6.90074 136.01826 38876 ft 469 kts 110°
2026-04-26 19:56 -6.92382 136.07979 38875 ft 469 kts 110°
2026-04-26 19:56 -6.94668 136.14078 38878 ft 468 kts 110°
2026-04-26 19:57 -6.96970 136.20224 38884 ft 469 kts 110°
2026-04-26 19:57 -6.99275 136.26380 38878 ft 469 kts 110°
2026-04-26 19:58 -7.01578 136.32535 38877 ft 469 kts 110°
2026-04-26 19:58 -7.03862 136.38639 38873 ft 469 kts 110°
2026-04-26 19:59 -7.06165 136.44797 38879 ft 470 kts 110°
2026-04-26 19:59 -7.08470 136.50965 38879 ft 469 kts 110°
2026-04-26 20:00 -7.10772 136.57128 38886 ft 470 kts 110°
2026-04-26 20:00 -7.13072 136.63289 38884 ft 470 kts 110°
2026-04-26 20:01 -7.15364 136.69425 38878 ft 471 kts 110°
2026-04-26 20:01 -7.17668 136.75601 38879 ft 471 kts 110°
2026-04-26 20:02 -7.19975 136.81787 38881 ft 472 kts 110°
2026-04-26 20:02 -7.21894 136.86936 38891 ft 473 kts 111°
2026-04-26 20:03 -7.24596 136.94186 38885 ft 473 kts 111°
2026-04-26 20:03 -7.26892 137.00350 38880 ft 473 kts 111°
2026-04-26 20:04 -7.29202 137.06558 38884 ft 473 kts 111°
2026-04-26 20:04 -7.31517 137.12779 38883 ft 474 kts 111°
2026-04-26 20:05 -7.33828 137.18993 38886 ft 474 kts 111°
2026-04-26 20:05 -7.36142 137.25218 38889 ft 474 kts 111°
2026-04-26 20:06 -7.38442 137.31410 38881 ft 474 kts 111°
2026-04-26 20:06 -7.40754 137.37633 38882 ft 474 kts 111°
2026-04-26 20:07 -7.43052 137.43825 38880 ft 474 kts 111°
2026-04-26 20:07 -7.45365 137.50061 38883 ft 475 kts 111°
2026-04-26 20:08 -7.47679 137.56301 38883 ft 474 kts 111°
2026-04-26 20:08 -7.49992 137.62540 38896 ft 475 kts 111°
2026-04-26 20:09 -7.52292 137.68750 38884 ft 476 kts 111°
2026-04-26 20:09 -7.54606 137.74998 38888 ft 476 kts 111°
2026-04-26 20:10 -7.56921 137.81252 38900 ft 476 kts 111°
2026-04-26 20:10 -7.59238 137.87517 38887 ft 477 kts 111°
2026-04-26 20:11 -7.61559 137.93794 38891 ft 477 kts 111°
2026-04-26 20:12 -7.65021 138.03164 38889 ft 477 kts 111°
2026-04-26 20:12 -7.67338 138.09438 38903 ft 477 kts 111°
2026-04-26 20:13 -7.69651 138.15704 38890 ft 477 kts 111°
2026-04-26 20:13 -7.71965 138.21978 38893 ft 477 kts 111°
2026-04-26 20:14 -7.74263 138.28211 38892 ft 477 kts 111°
2026-04-26 20:14 -7.76572 138.34475 38899 ft 477 kts 111°
2026-04-26 20:15 -7.78882 138.40747 38902 ft 477 kts 111°
2026-04-26 20:15 -7.81197 138.47034 38895 ft 477 kts 111°
2026-04-26 20:16 -7.83508 138.53316 38904 ft 477 kts 111°
2026-04-26 20:16 -7.85817 138.59594 38906 ft 477 kts 111°
2026-04-26 20:17 -7.88114 138.65843 38891 ft 477 kts 111°
2026-04-26 20:17 -7.90430 138.72145 38895 ft 478 kts 111°
2026-04-26 20:18 -7.92727 138.78400 38898 ft 478 kts 111°
2026-04-26 20:18 -7.95025 138.84662 38907 ft 477 kts 111°
2026-04-26 20:19 -7.97332 138.90952 38899 ft 477 kts 111°
2026-04-26 20:19 -7.99637 138.97237 38901 ft 477 kts 111°
2026-04-26 20:20 -8.01940 139.03522 38904 ft 477 kts 111°
2026-04-26 20:20 -8.04236 139.09792 38899 ft 479 kts 111°
2026-04-26 20:21 -8.06551 139.16114 38895 ft 480 kts 111°
2026-04-26 20:21 -8.08870 139.22451 38903 ft 480 kts 111°
2026-04-26 20:22 -8.11171 139.28747 38903 ft 481 kts 111°
2026-04-26 20:22 -8.13494 139.35101 38902 ft 480 kts 111°
2026-04-26 20:23 -8.15804 139.41427 38899 ft 480 kts 111°
2026-04-26 20:23 -8.18117 139.47760 38907 ft 480 kts 111°
2026-04-26 20:24 -8.20417 139.54063 38903 ft 480 kts 111°
2026-04-26 20:24 -8.22730 139.60406 38904 ft 481 kts 111°
2026-04-26 20:25 -8.25043 139.66753 38906 ft 481 kts 111°
2026-04-26 20:25 -8.27354 139.73096 38912 ft 481 kts 111°
2026-04-26 20:26 -8.29649 139.79400 38912 ft 481 kts 111°
2026-04-26 20:26 -8.31965 139.85763 38906 ft 482 kts 111°
2026-04-26 20:27 -8.34273 139.92112 38914 ft 481 kts 111°
2026-04-26 20:27 -8.36584 139.98467 38905 ft 482 kts 111°
2026-04-26 20:28 -8.38880 140.04790 38917 ft 481 kts 111°
2026-04-26 20:28 -8.41191 140.11155 38912 ft 482 kts 111°
2026-04-26 20:29 -8.43498 140.17511 38915 ft 482 kts 111°
2026-04-26 20:29 -8.45806 140.23875 38916 ft 481 kts 111°
2026-04-26 20:30 -8.48107 140.30225 38914 ft 480 kts 111°
2026-04-26 20:30 -8.50389 140.36524 38910 ft 480 kts 111°
2026-04-26 20:31 -8.52314 140.42976 38911 ft 480 kts 101°
2026-04-26 20:31 -8.53373 140.49653 38912 ft 481 kts 98°
2026-04-26 20:32 -8.54261 140.56360 38905 ft 481 kts 98°
2026-04-26 20:32 -8.55125 140.63076 38914 ft 481 kts 98°
2026-04-26 20:33 -8.55996 140.69737 38910 ft 481 kts 98°
2026-04-26 20:33 -8.56884 140.76443 38916 ft 481 kts 98°
2026-04-26 20:34 -8.57774 140.83151 38914 ft 481 kts 98°
2026-04-26 20:34 -8.58662 140.89857 38918 ft 481 kts 98°
2026-04-26 20:35 -8.59550 140.96572 38917 ft 482 kts 98°
2026-04-26 20:35 -8.60590 141.03234 38920 ft 481 kts 102°
2026-04-26 20:36 -8.62032 141.09856 38925 ft 481 kts 104°
2026-04-26 20:36 -8.63529 141.16406 38914 ft 481 kts 104°
2026-04-26 20:37 -8.64997 141.23002 38915 ft 481 kts 103°
2026-04-26 20:37 -8.66439 141.29625 38915 ft 481 kts 103°
2026-04-26 20:38 -8.67856 141.36184 38913 ft 481 kts 103°
2026-04-26 20:38 -8.69282 141.42787 38917 ft 480 kts 103°
2026-04-26 20:39 -8.70701 141.49357 38914 ft 480 kts 103°
2026-04-26 20:39 -8.72126 141.55954 38918 ft 480 kts 103°
2026-04-26 20:40 -8.73549 141.62547 38924 ft 480 kts 103°
2026-04-26 20:40 -8.74971 141.69145 38918 ft 480 kts 103°
2026-04-26 20:41 -8.76384 141.75704 38923 ft 480 kts 103°
2026-04-26 20:41 -8.77804 141.82304 38920 ft 480 kts 103°
2026-04-26 20:42 -8.79224 141.88907 38923 ft 481 kts 103°
2026-04-26 20:42 -8.80406 141.94407 38917 ft 481 kts 103°
2026-04-26 20:43 -8.81824 142.01015 38922 ft 481 kts 103°
2026-04-26 20:43 -8.83245 142.07641 38919 ft 481 kts 102°
2026-04-26 20:44 -8.84663 142.14259 38924 ft 482 kts 102°
2026-04-26 20:44 -8.86073 142.20847 38927 ft 482 kts 102°
2026-04-26 20:45 -8.87493 142.27485 38918 ft 482 kts 102°
2026-04-26 20:45 -8.88903 142.34085 38910 ft 483 kts 102°
2026-04-26 20:46 -8.90322 142.40731 38917 ft 483 kts 102°
2026-04-26 20:46 -8.91742 142.47390 38919 ft 483 kts 102°
2026-04-26 20:47 -8.93158 142.54032 38930 ft 483 kts 102°
2026-04-26 20:47 -8.94571 142.60668 38923 ft 484 kts 102°
2026-04-26 20:48 -8.95979 142.67286 38928 ft 484 kts 102°
2026-04-26 20:48 -8.97395 142.73953 38922 ft 484 kts 102°
2026-04-26 20:49 -8.98811 142.80619 38918 ft 484 kts 101°
2026-04-26 20:49 -9.00225 142.87284 38924 ft 485 kts 101°
2026-04-26 20:50 -9.01630 142.93914 38917 ft 485 kts 101°
2026-04-26 20:50 -9.03044 143.00591 38918 ft 485 kts 101°
2026-04-26 20:51 -9.04459 143.07282 38919 ft 485 kts 101°
2026-04-26 20:51 -9.05871 143.13964 38916 ft 486 kts 101°
2026-04-26 20:52 -9.06402 143.20698 38927 ft 482 kts 84°
2026-04-26 20:52 -9.05877 143.24045 38925 ft 480 kts 73°
2026-04-26 20:52 -9.04835 143.27252 38912 ft 479 kts 68°
2026-04-26 20:53 -9.02299 143.33452 38924 ft 480 kts 64°
2026-04-26 20:53 -8.99568 143.39654 38927 ft 485 kts 64°
2026-04-26 20:54 -8.96826 143.45914 38917 ft 486 kts 64°
2026-04-26 20:54 -8.94112 143.52197 38918 ft 486 kts 64°
2026-04-26 20:55 -8.91418 143.58469 38927 ft 486 kts 64°
2026-04-26 20:55 -8.88739 143.64705 38917 ft 486 kts 64°
2026-04-26 20:56 -8.86037 143.70986 38917 ft 486 kts 64°
2026-04-26 20:56 -8.83335 143.77263 38916 ft 485 kts 64°
2026-04-26 20:57 -8.80664 143.83466 38907 ft 482 kts 64°
2026-04-26 20:57 -8.77989 143.89673 38915 ft 481 kts 64°
2026-04-26 20:58 -8.75312 143.95883 38927 ft 481 kts 64°
2026-04-26 20:58 -8.72633 144.02091 38911 ft 481 kts 64°
2026-04-26 20:59 -8.69967 144.08268 38912 ft 481 kts 64°
2026-04-26 20:59 -8.67289 144.14468 38908 ft 481 kts 64°
2026-04-26 21:00 -8.64602 144.20688 38913 ft 481 kts 64°
2026-04-26 21:00 -8.61917 144.26897 38910 ft 481 kts 64°
2026-04-26 21:01 -8.59262 144.33041 38908 ft 477 kts 64°
2026-04-26 21:01 -8.56610 144.39172 38907 ft 474 kts 64°
2026-04-26 21:02 -8.53963 144.45285 38922 ft 474 kts 64°
2026-04-26 21:02 -8.51331 144.51356 38911 ft 474 kts 64°
2026-04-26 21:03 -8.48694 144.57443 38911 ft 472 kts 64°
2026-04-26 21:03 -8.46059 144.63518 38912 ft 471 kts 64°
2026-04-26 21:04 -8.43421 144.69598 38912 ft 471 kts 64°
2026-04-26 21:04 -8.40803 144.75629 38915 ft 471 kts 64°
2026-04-26 21:05 -8.38171 144.81693 38911 ft 470 kts 64°
2026-04-26 21:05 -8.35544 144.87739 38910 ft 469 kts 64°
2026-04-26 21:06 -8.32929 144.93756 38910 ft 469 kts 64°
2026-04-26 21:06 -8.30320 144.99756 38909 ft 469 kts 64°
2026-04-26 21:07 -8.27697 145.05786 38906 ft 469 kts 64°
2026-04-26 21:07 -8.25070 145.11741 38923 ft 459 kts 63°
2026-04-26 21:08 -8.22436 145.17690 38910 ft 467 kts 64°
2026-04-26 21:08 -8.19847 145.23777 38902 ft 481 kts 65°
2026-04-26 21:09 -8.17288 145.29900 38917 ft 466 kts 67°
2026-04-26 21:09 -8.14652 145.35919 38860 ft 469 kts 63°
2026-04-26 21:10 -8.11924 145.41995 38930 ft 482 kts 64°
2026-04-26 21:10 -8.09303 145.48085 38897 ft 470 kts 66°
2026-04-26 21:11 -8.06606 145.54193 38788 ft 471 kts 64°
2026-04-26 21:11 -8.05280 145.57213 38303 ft 471 kts 64°
2026-04-26 21:11 -8.03954 145.60227 37646 ft 471 kts 64°
2026-04-26 21:11 -8.02619 145.63273 37012 ft 469 kts 66°
2026-04-26 21:12 -8.01318 145.66299 36365 ft 469 kts 64°
2026-04-26 21:12 -8.00042 145.69279 35805 ft 453 kts 65°
2026-04-26 21:12 -7.98916 145.72275 35234 ft 466 kts 75°
2026-04-26 21:12 -7.98352 145.75601 34643 ft 487 kts 88°
2026-04-26 21:13 -7.98656 145.79026 34044 ft 506 kts 101°
2026-04-26 21:13 -7.99848 145.82364 33370 ft 509 kts 117°
2026-04-26 21:13 -8.01699 145.85395 32709 ft 506 kts 124°
2026-04-26 21:13 -8.03783 145.88239 32052 ft 501 kts 128°
2026-04-26 21:14 -8.05981 145.90983 31402 ft 504 kts 130°
2026-04-26 21:14 -8.08219 145.93711 30783 ft 504 kts 130°
2026-04-26 21:14 -8.10446 145.96449 30169 ft 503 kts 130°
2026-04-26 21:14 -8.12649 145.99203 29489 ft 503 kts 130°
2026-04-26 21:15 -8.14802 146.01940 28788 ft 501 kts 129°
2026-04-26 21:15 -8.16946 146.04701 28101 ft 498 kts 129°
2026-04-26 21:15 -8.19072 146.07456 27439 ft 494 kts 129°
2026-04-26 21:15 -8.21190 146.10198 26806 ft 494 kts 129°
2026-04-26 21:16 -8.23289 146.12929 26172 ft 490 kts 128°
2026-04-26 21:16 -8.25341 146.15609 25590 ft 486 kts 128°
2026-04-26 21:16 -8.27401 146.18299 25014 ft 482 kts 128°
2026-04-26 21:16 -8.29445 146.20970 24433 ft 477 kts 128°
2026-04-26 21:17 -8.31467 146.23610 23884 ft 473 kts 128°
2026-04-26 21:17 -8.33473 146.26228 23313 ft 469 kts 128°
2026-04-26 21:17 -8.35459 146.28818 22677 ft 464 kts 128°
2026-04-26 21:17 -8.37428 146.31380 22074 ft 459 kts 128°
2026-04-26 21:18 -8.39384 146.33920 21465 ft 457 kts 128°
2026-04-26 21:18 -8.41327 146.36459 20867 ft 454 kts 128°
2026-04-26 21:18 -8.43253 146.38975 20296 ft 449 kts 128°
2026-04-26 21:18 -8.45128 146.41421 19754 ft 444 kts 128°
2026-04-26 21:19 -8.47015 146.43884 19204 ft 439 kts 128°
2026-04-26 21:19 -8.48875 146.46313 18688 ft 433 kts 128°
2026-04-26 21:19 -8.50709 146.48706 18182 ft 428 kts 128°
2026-04-26 21:19 -8.52527 146.51079 17585 ft 424 kts 128°
2026-04-26 21:20 -8.54307 146.53399 17051 ft 419 kts 128°
2026-04-26 21:20 -8.56086 146.55717 16503 ft 415 kts 128°
2026-04-26 21:20 -8.57845 146.58015 15949 ft 412 kts 128°
2026-04-26 21:20 -8.59596 146.60304 15444 ft 409 kts 128°
2026-04-26 21:21 -8.61330 146.62570 14927 ft 407 kts 128°
2026-04-26 21:21 -8.63055 146.64830 14435 ft 403 kts 128°
2026-04-26 21:21 -8.64767 146.67067 13949 ft 400 kts 128°
2026-04-26 21:21 -8.66461 146.69282 13509 ft 396 kts 128°
2026-04-26 21:22 -8.68101 146.71429 13157 ft 385 kts 128°
2026-04-26 21:22 -8.69754 146.73516 12812 ft 375 kts 133°
2026-04-26 21:22 -8.71702 146.75218 12499 ft 366 kts 145°
2026-04-26 21:23 -8.75857 146.78002 11853 ft 349 kts 148°
2026-04-26 21:23 -8.77848 146.79304 11552 ft 341 kts 148°
2026-04-26 21:23 -8.79815 146.80598 11268 ft 334 kts 148°
2026-04-26 21:23 -8.81745 146.81867 10990 ft 327 kts 147°
2026-04-26 21:24 -8.83619 146.83105 10716 ft 316 kts 147°
2026-04-26 21:24 -8.85417 146.84293 10455 ft 300 kts 147°
2026-04-26 21:24 -8.87159 146.85442 10211 ft 298 kts 147°
2026-04-26 21:24 -8.88891 146.86588 9958 ft 295 kts 147°
2026-04-26 21:25 -8.90603 146.87724 9689 ft 294 kts 147°
2026-04-26 21:25 -8.92316 146.88854 9293 ft 292 kts 147°
2026-04-26 21:25 -8.94004 146.89965 8866 ft 293 kts 148°
2026-04-26 21:25 -8.95714 146.91087 8419 ft 293 kts 147°
2026-04-26 21:26 -8.97429 146.92226 7980 ft 296 kts 147°
2026-04-26 21:26 -8.99150 146.93368 7541 ft 296 kts 147°
2026-04-26 21:26 -9.00878 146.94513 7100 ft 298 kts 147°
2026-04-26 21:26 -9.02618 146.95650 6671 ft 294 kts 147°
2026-04-26 21:27 -9.04299 146.96763 6239 ft 286 kts 146°
2026-04-26 21:27 -9.05930 146.97850 5817 ft 278 kts 146°
2026-04-26 21:27 -9.07542 146.98923 5398 ft 279 kts 146°
2026-04-26 21:27 -9.09165 147.00002 4985 ft 278 kts 146°
2026-04-26 21:28 -9.10764 147.01063 4564 ft 281 kts 147°
2026-04-26 21:28 -9.12386 147.02140 4136 ft 275 kts 146°
2026-04-26 21:28 -9.13949 147.03188 3715 ft 263 kts 147°
2026-04-26 21:28 -9.15459 147.04184 3429 ft 254 kts 146°
2026-04-26 21:29 -9.16918 147.05148 3222 ft 247 kts 146°
2026-04-26 21:29 -9.17863 147.05767 3094 ft 241 kts 146°
2026-04-26 21:29 -9.19698 147.06940 2931 ft 227 kts 148°
2026-04-26 21:29 -9.21014 147.07760 2931 ft 222 kts 147°
2026-04-26 21:30 -9.22336 147.08585 2932 ft 223 kts 147°
2026-04-26 21:30 -9.23211 147.09119 2919 ft 216 kts 148°
2026-04-26 21:30 -9.24448 147.09898 2938 ft 202 kts 148°
2026-04-26 21:30 -9.25605 147.10612 2941 ft 189 kts 148°
2026-04-26 21:31 -9.26694 147.11295 2900 ft 185 kts 147°
2026-04-26 21:31 -9.27791 147.11969 2929 ft 186 kts 146°
2026-04-26 21:31 -9.28909 147.12649 2930 ft 189 kts 148°
2026-04-26 21:31 -9.30031 147.13334 2933 ft 188 kts 148°
2026-04-26 21:32 -9.31153 147.14012 2845 ft 190 kts 147°
2026-04-26 21:32 -9.32280 147.14709 2628 ft 189 kts 148°
2026-04-26 21:32 -9.33402 147.15408 2346 ft 188 kts 148°
2026-04-26 21:32 -9.34509 147.16099 2141 ft 182 kts 147°
2026-04-26 21:33 -9.35537 147.16730 1819 ft 171 kts 151°
2026-04-26 21:33 -9.36543 147.17335 1539 ft 162 kts 147°
2026-04-26 21:33 -9.37442 147.17887 1382 ft 144 kts 147°
2026-04-26 21:33 -9.38263 147.18401 1253 ft 136 kts 149°
2026-04-26 21:34 -9.39053 147.18899 1092 ft 134 kts 148°
2026-04-26 21:34 -9.39858 147.19402 936 ft 136 kts 148°
2026-04-26 21:34 -9.40663 147.19885 699 ft 133 kts 151°
2026-04-26 21:34 -9.41467 147.20379 512 ft 139 kts 148°
2026-04-26 21:35 -9.42273 147.20900 366 ft 135 kts 146°
2026-04-26 21:35 -9.43073 147.21388 164 ft 136 kts 149°
2026-04-26 21:35 -9.43819 147.21847 112 ft 103 kts 149°
2026-04-26 21:35 -9.44264 147.22120 115 ft 51 kts 149°
2026-04-26 21:36 -9.44436 147.22217 109 ft 13 kts 173°
2026-04-26 21:36 -9.44502 147.22168 112 ft 13 kts 240°
2026-04-26 21:36 -9.44552 147.22085 113 ft 14 kts 238°
2026-04-26 21:36 -9.44606 147.21997 105 ft 15 kts 238°
2026-04-26 21:37 -9.44644 147.21903 110 ft 13 kts 285°
2026-04-26 21:37 -9.44575 147.21847 114 ft 13 kts 327°
2026-04-26 21:37 -9.44495 147.21797 112 ft 14 kts 331°
2026-04-26 21:37 -9.44408 147.21745 104 ft 15 kts 328°
2026-04-26 21:38 -9.44320 147.21690 104 ft 16 kts 328°
2026-04-26 21:38 -9.44225 147.21632 110 ft 16 kts 329°
2026-04-26 21:38 -9.44126 147.21571 113 ft 17 kts 329°
2026-04-26 21:38 -9.44021 147.21507 104 ft 18 kts 328°
2026-04-26 21:39 -9.43912 147.21438 114 ft 19 kts 327°
2026-04-26 21:39 -9.43849 147.21357 113 ft 12 kts 266°
2026-04-26 21:39 -9.43834 147.21292 109 ft 3 kts 289°
2026-04-26 21:39 -9.43838 147.21278 107 ft 3 kts 256°
2026-04-26 21:40 -9.43844 147.21263 108 ft 1 kts 248°
2026-04-26 21:40 -9.43845 147.21260 112 ft 0 kts 247°
2026-04-26 21:40 -9.43857 147.21237 103 ft 5 kts 243°
2026-04-26 21:40 -9.43867 147.21219 112 ft 2 kts 240°
2026-04-26 21:41 -9.43869 147.21215 115 ft 1 kts 240°
2026-04-26 21:41 -9.43870 147.21213 115 ft 0 kts 239°
2026-04-26 21:41 -9.43872 147.21211 115 ft 0 kts 239°